This is the latest recevied weather packets stored in our database for station/object N7WSS. If no packets are shown the sender has not sent any weather packets the latest 10 day(s).
| Time | Temp. | Humidity | Pressure | Rain* | Wind** | Luminosity | Snow |
|---|---|---|---|---|---|---|---|
| 1787937987 | 36.67° C | 28% | 1016 hPa | 0 mm | - | - | - |
| 1787937682 | 36.67° C | 27% | 1016.1 hPa | 0 mm | - | - | - |
| 1787937379 | 36.67° C | 28% | 1016 hPa | 0 mm | - | - | - |
| 1787937074 | 36.11° C | 28% | 1016.1 hPa | 0 mm | - | - | - |
| 1787936774 | 35.56° C | 30% | 1016.1 hPa | 0 mm | - | - | - |
| 1787936469 | 35° C | 30% | 1016 hPa | 0 mm | - | - | - |
| 1787936168 | 35° C | 31% | 1015.9 hPa | 0 mm | - | - | - |
| 1787935864 | 34.44° C | 31% | 1016.1 hPa | 0 mm | - | - | - |
| 1787935559 | 34.44° C | 33% | 1016 hPa | 0 mm | - | - | - |
| 1787935255 | 33.89° C | 34% | 1016 hPa | 0 mm | - | - | - |
| 1787934950 | 33.33° C | 34% | 1016.1 hPa | 0 mm | - | - | - |
| 1787934645 | 33.33° C | 34% | 1016.1 hPa | 0 mm | - | - | - |
| 1787934354 | 33.33° C | 35% | 1015.9 hPa | 0 mm | - | - | - |
| 1787934044 | 33.33° C | 34% | 1016.1 hPa | 0 mm | - | - | - |
| 1787933744 | 33.33° C | 34% | 1015.9 hPa | 0 mm | - | - | - |
| 1787933439 | 33.33° C | 35% | 1016 hPa | 0 mm | - | - | - |
| 1787933138 | 33.33° C | 34% | 1015.9 hPa | 0 mm | - | - | - |
| 1787932833 | 33.89° C | 34% | 1016 hPa | 0 mm | - | - | - |
| 1787932533 | 34.44° C | 33% | 1015.9 hPa | 0 mm | - | - | - |
| 1787932228 | 34.44° C | 34% | 1015.7 hPa | 0 mm | - | - | - |
| 1787931927 | 34.44° C | 35% | 1016 hPa | 0 mm | - | - | - |
| 1787931627 | 33.33° C | 35% | 1015.9 hPa | 0 mm | - | - | - |
| 1787931327 | 32.78° C | 36% | 1016 hPa | 0 mm | - | - | - |
| 1787931022 | 32.78° C | 37% | 1015.9 hPa | 0 mm | - | - | - |
| 1787930720 | 32.22° C | 38% | 1016 hPa | 0 mm | - | - | - |
* Rain latest hour (hover to see other rain measurements)
** Current wind speed in m/s (hover to see current wind gust speed)